Location: Powder Track
(41.8531°N, 72.3584°W)
Time: 00:23:10
(UTC+00:00)

Vanguard 1 Rocket - Pass Details

Date: 10 August 2021
Orbit: 650 x 4226 km, 34.3° (Epoch: 19 September)

Event Time Altitude Azimuth Distance (km) Brightness Sun altitude
Rises 07:44:22 0° 166° (SSE) 7,775 11.8 -20.6°
Reaches altitude 10° 07:58:30 10° 135° (SE) 7,359 12.0 -18.8°
Maximum altitude 08:02:51 11° 125° (SE) 7,359 12.1 -18.2°
Drops below altitude 10° 08:07:12 10° 115° (ESE) 7,421 12.3 -17.6°
Sets 08:21:18 0° 86° (E) 8,044 13.2 -15.5°
